Weather History for KHFJ - February, 2012

Change the Weather History Date:

Sunday, February 26, 2012

  Actual Average (KJLN) Record (KJLN)
Temperature  
Mean Temperature 48 °F 43 °F  
Max Temperature 60 °F 54 °F 81 °F (1996)
Min Temperature 35 °F 32 °F 8 °F (1960)
Degree Days  
Heating Degree Days 18 22  
Month to date heating degree days 662  
Since 1 July heating degree days 3211  
Cooling Degree Days 0 0  
Month to date cooling degree days 0  
Year to date cooling degree days 0  
Moisture  
Dew Point 27 °F    
Average Humidity 42    
Maximum Humidity 60    
Minimum Humidity 30    
Precipitation  
Precipitation 0.00 in 0.09 in 2.02 in (1984)
Month to date precipitation 2.13  
Year to date precipitation 4.16  
Sea Level Pressure  
Sea Level Pressure 30.05 in    
Wind  
Wind Speed 13 mph (South)    
Max Wind Speed 26 mph    
Max Gust Speed 37 mph    
Visibility 10 miles    
Events      
T = Trace of Precipitation, MM = Missing Value Source: NWS Daily Summary

Daily Weather History Graph

Daily Weather History Graph

Search for Another Location

Airport or City:

Trip Planner

Search our weather history database for the weather conditions in past years. The results will help you decide how hot, cold, wet, or windy it might be!

Date:

Astronomy

Feb. 26, 2012 Rise Set
Actual Time 6:51 AM CST 6:06 PM CST
Civil Twilight 6:25 AM CST 6:33 PM CST
Nautical Twilight 5:55 AM CST 7:03 PM CST
Astronomical Twilight 5:25 AM CST 7:33 PM CST
Moon 8:55 AM CST (2/26) 10:56 PM CST (2/26)
Length of Visible Light 12h 07m
Length of Day
11h 15m
Waxing Crescent, 21% of the Moon is Illuminated
Feb 26
Waxing Crescent
Feb 29
First Quarter
Mar 8
Full
Mar 14
Last Quarter
Mar 22
New

Hourly Weather History & Observations

Time (CST) Temp. Windchill Dew Point Humidity Pressure Visibility Wind Dir Wind Speed Gust Speed Precip Events Conditions
12:15 AM 41.0 °F 34.7 °F 21.2 °F 45% 30.07 in 10.0 mi SSE 10.4 mph - N/A   Clear
12:35 AM 41.0 °F 35.8 °F 23.0 °F 49% 30.08 in 10.0 mi SSE 8.1 mph - N/A   Clear
12:55 AM 39.2 °F 33.6 °F 23.0 °F 52% 30.08 in 10.0 mi SSE 8.1 mph - N/A   Clear
1:15 AM 37.4 °F 30.8 °F 23.0 °F 56% 30.09 in 10.0 mi SE 9.2 mph - N/A   Clear
1:35 AM 37.4 °F 32.1 °F 23.0 °F 56% 30.10 in 10.0 mi SE 6.9 mph - N/A   Clear
1:55 AM 35.6 °F 28.6 °F 23.0 °F 60% 30.09 in 10.0 mi SE 9.2 mph - N/A   Clear
2:15 AM 37.4 °F 29.8 °F 23.0 °F 56% 30.08 in 10.0 mi SE 11.5 mph - N/A   Clear
2:35 AM 37.4 °F 29.3 °F 23.0 °F 56% 30.06 in 10.0 mi SSE 12.7 mph - N/A   Clear
2:55 AM 37.4 °F 29.3 °F 23.0 °F 56% 30.05 in 10.0 mi SSE 12.7 mph - N/A   Clear
3:15 AM 39.2 °F 32.0 °F 23.0 °F 52% 30.05 in 10.0 mi SSE 11.5 mph - N/A   Clear
3:35 AM 37.4 °F 29.8 °F 23.0 °F 56% 30.05 in 10.0 mi SSE 11.5 mph - N/A   Clear
3:55 AM 37.4 °F 29.8 °F 23.0 °F 56% 30.05 in 10.0 mi SSE 11.5 mph - N/A   Clear
4:15 AM 37.4 °F 29.3 °F 23.0 °F 56% 30.05 in 10.0 mi SSE 12.7 mph - N/A   Clear
5:35 AM 42.8 °F 35.1 °F 23.0 °F 46% 30.05 in 10.0 mi South 16.1 mph - N/A   Clear
5:55 AM 42.8 °F 35.4 °F 23.0 °F 46% 30.04 in 10.0 mi South 15.0 mph 23.0 mph N/A   Clear
6:15 AM 42.8 °F 35.4 °F 23.0 °F 46% 30.04 in 10.0 mi South 15.0 mph 24.2 mph N/A   Clear
7:15 AM 42.8 °F 37.0 °F 23.0 °F 46% 30.07 in 10.0 mi South 10.4 mph - N/A   Clear
7:35 AM 42.8 °F 37.5 °F 23.0 °F 46% 30.08 in 10.0 mi SSW 9.2 mph - N/A   Clear
8:15 AM 44.6 °F 38.8 °F 23.0 °F 43% 30.10 in 10.0 mi South 11.5 mph - N/A   Clear
8:35 AM 44.6 °F 38.1 °F 23.0 °F 43% 30.08 in 10.0 mi South 13.8 mph - N/A   Clear
8:55 AM 46.4 °F 39.2 °F 23.0 °F 40% 30.08 in 10.0 mi South 18.4 mph 26.5 mph N/A   Clear
9:15 AM 50.0 °F - 23.0 °F 35% 30.08 in 10.0 mi South 20.7 mph 29.9 mph N/A   Clear
9:55 AM 51.8 °F - 23.0 °F 33% 30.08 in 10.0 mi SSW 20.7 mph 32.2 mph N/A   Clear
10:15 AM 51.8 °F - 23.0 °F 33% 30.08 in 10.0 mi South 18.4 mph 31.1 mph N/A   Clear
10:35 AM 53.6 °F - 23.0 °F 30% 30.08 in 10.0 mi SSW 25.3 mph 35.7 mph N/A   Clear
10:55 AM 53.6 °F - 24.8 °F 33% 30.07 in 10.0 mi South 24.2 mph 34.5 mph N/A   Clear
11:15 AM 55.4 °F - 24.8 °F 31% 30.08 in 10.0 mi SSW 20.7 mph 36.8 mph N/A   Clear
11:35 AM 55.4 °F - 26.6 °F 33% 30.07 in 10.0 mi South 23.0 mph 28.8 mph N/A   Clear
11:55 AM 57.2 °F - 28.4 °F 33% 30.06 in 10.0 mi SSW 24.2 mph 28.8 mph N/A   Clear
12:15 PM 57.2 °F - 28.4 °F 33% 30.05 in 10.0 mi South 26.5 mph 33.4 mph N/A   Clear
12:35 PM 59.0 °F - 30.2 °F 34% 30.04 in 10.0 mi SSW 21.9 mph 26.5 mph N/A   Clear
12:55 PM 59.0 °F - 30.2 °F 34% 30.03 in 10.0 mi SSW 24.2 mph 32.2 mph N/A   Clear
1:15 PM 59.0 °F - 30.2 °F 34% 30.02 in 10.0 mi SSW 23.0 mph 29.9 mph N/A   Clear
1:35 PM 59.0 °F - 30.2 °F 34% 30.01 in 10.0 mi SSW 25.3 mph 29.9 mph N/A   Clear
1:55 PM 60.8 °F - 30.2 °F 31% 30.00 in 10.0 mi SSW 18.4 mph 26.5 mph N/A   Clear
2:15 PM 60.8 °F - 32.0 °F 34% 30.00 in 10.0 mi South 16.1 mph 23.0 mph N/A   Clear
2:35 PM 59.0 °F - 30.2 °F 34% 29.99 in 10.0 mi SSW 19.6 mph 27.6 mph N/A   Clear
2:55 PM 60.8 °F - 32.0 °F 34% 29.99 in 10.0 mi South 17.3 mph 25.3 mph N/A   Clear
3:15 PM 60.8 °F - 32.0 °F 34% 29.98 in 10.0 mi SSW 20.7 mph 27.6 mph N/A   Clear
3:35 PM 60.8 °F - 32.0 °F 34% 29.98 in 10.0 mi South 19.6 mph 26.5 mph N/A   Clear
3:55 PM 60.8 °F - 32.0 °F 34% 29.98 in 10.0 mi SSW 20.7 mph 24.2 mph N/A   Clear
4:15 PM 60.8 °F - 32.0 °F 34% 29.98 in 10.0 mi SSW 17.3 mph 23.0 mph N/A   Clear
4:35 PM 60.8 °F - 32.0 °F 34% 29.99 in 10.0 mi SSW 17.3 mph 25.3 mph N/A   Clear
4:55 PM 60.8 °F - 32.0 °F 34% 29.99 in 10.0 mi SSW 18.4 mph 21.9 mph N/A   Clear
5:15 PM 60.8 °F - 32.0 °F 34% 30.00 in 10.0 mi SSW 11.5 mph - N/A   Clear
5:35 PM 59.0 °F - 32.0 °F 36% 30.01 in 10.0 mi SW 9.2 mph - N/A   Clear
5:55 PM 57.2 °F - 33.8 °F 41% 30.02 in 10.0 mi SSW 8.1 mph - N/A   Clear
6:15 PM 55.4 °F - 32.0 °F 41% 30.03 in 10.0 mi SSW 8.1 mph - N/A   Clear
6:35 PM 53.6 °F - 32.0 °F 44% 30.04 in 10.0 mi SSW 6.9 mph - N/A   Clear
6:55 PM 53.6 °F - 32.0 °F 44% 30.05 in 10.0 mi SSW 6.9 mph - N/A   Clear
7:15 PM 51.8 °F - 32.0 °F 47% 30.05 in 10.0 mi South 4.6 mph - N/A   Clear
7:35 PM 51.8 °F - 32.0 °F 47% 30.06 in 10.0 mi South 4.6 mph - N/A   Clear
7:55 PM 46.4 °F 44.3 °F 32.0 °F 57% 30.08 in 10.0 mi SSE 4.6 mph - N/A   Clear
8:15 PM 50.0 °F - 32.0 °F 50% 30.09 in 10.0 mi Calm Calm - N/A   Clear
8:35 PM 48.2 °F - 32.0 °F 54% 30.09 in 10.0 mi SSE 3.5 mph - N/A   Clear
8:55 PM 48.2 °F - 32.0 °F 54% 30.10 in 10.0 mi SSE 3.5 mph - N/A   Scattered Clouds
9:15 PM 48.2 °F - 32.0 °F 54% 30.12 in 10.0 mi South 3.5 mph - N/A   Overcast
9:35 PM 50.0 °F - 32.0 °F 50% 30.13 in 10.0 mi WSW 6.9 mph - N/A   Overcast
9:55 PM 50.0 °F - 33.8 °F 54% 30.14 in 10.0 mi Calm Calm - N/A   Overcast
10:15 PM 50.0 °F - 32.0 °F 50% 30.15 in 10.0 mi South 3.5 mph - N/A   Overcast
10:35 PM 48.2 °F - 33.8 °F 58% 30.15 in 10.0 mi South 3.5 mph - N/A   Overcast
10:55 PM 50.0 °F - 32.0 °F 50% 30.16 in 10.0 mi SSE 3.5 mph - N/A   Overcast
11:15 PM 50.0 °F - 33.8 °F 54% 30.16 in 10.0 mi SE 3.5 mph - N/A   Overcast
11:35 PM 50.0 °F - 33.8 °F 54% 30.17 in 10.0 mi SSE 4.6 mph - N/A   Overcast
11:55 PM 50.0 °F - 33.8 °F 54% 30.17 in 10.0 mi South 3.5 mph - N/A   Overcast